User: anonymous   Login
Location: Newark
(47.1000°N, 5.3000°E)
Time: 21:34:30
(UTC+00:00)
Language:

Gurwin Techsat 1B - Orbit

View from above orbital plane
View from above orbital plane
View from above satellite
View from above satellite

Ground track
Ground track

The orbit data is extracted from the following two-line orbital elements,

1 25397U 98043D   19342.86147578 -.00000026  00000-0  79890-5 0  9992
2 25397  98.7074 281.0351 0000312 208.5391 151.5770 14.23675677112511
Epoch (UTC): 08 December 2019 20:40:31
Eccentricity: 0.0000312
inclination: 98.7074°
perigee height: 813 km
apogee height: 813 km
right ascension of ascending node: 281.0351°
argument of perigee: 208.5391°
revolutions per day: 14.23675677
mean anomaly at epoch: 151.5770°
orbit number at epoch: 11251

The dashed part of the orbit path shows where the satellite is in the earth's shadow,  

DLR